Hourly Data Report for October 03, 2017

All times are specified in Local Standard Time (LST). Add 1 hour to adjust for Daylight Saving Time where and when it is observed.

ASHCROFT
BRITISH COLUMBIA

50°42'30.005" N
121°16'53.001" W
327.00 m
1160515
71681
VAS

Download Data

Hourly Data (October 2017)
Hourly Data Report for October 3, 2017
Temp Definition
°C
Dew Point Temp Definition
°C
Rel Hum Definition
%
Wind Dir Definition
10's deg

Wind Spd Definition
km/h
Visibility Definition
km
Stn Press Definition
kPa
Hmdx Definition


Wind Chill Definition


Weather Definition


TIME
00:00 10.4 -5.9 31 1 12   99.05     LegendNANA
01:00 9.2 -6.0 34 5 7   99.12     LegendNANA
02:00 6.6 -4.0 46 1 3   99.15     LegendNANA
03:00 6.7 -4.9 43 1 5   99.15     LegendNANA
04:00 5.3 -4.3 50 12 4   99.16     LegendNANA
05:00 4.8 -4.5 51 7 3   99.14     LegendNANA
06:00 2.6 -4.0 62 20 2   99.20     LegendNANA
07:00 2.0 -3.6 67 17 2   99.25     LegendNANA
08:00 2.9 -3.5 63 8 2   99.32     LegendNANA
09:00 7.1 -3.5 47 1 5   99.26     LegendNANA
10:00 8.8 -4.3 39 22 3   99.19     LegendNANA
11:00 11.5 -4.7 32 32 3   99.09     LegendNANA
12:00 13.9 -5.7 25 31 3   99.01     LegendNANA
13:00 15.5 -5.9 22 32 4   98.92     LegendNANA
14:00 16.1 -6.4 21 1 4   98.82     LegendNANA
15:00 17.3 -6.1 20 28 5   98.74     LegendNANA
16:00 17.5 -6.0 20 31 4   98.70     LegendNANA
17:00 15.6 -5.7 23 27 1   98.69     LegendNANA
18:00 12.2 -4.0 32 17 3   98.71     LegendNANA
19:00 10.4 -4.3 35 0 1   98.76     LegendNANA
20:00 9.4 -3.8 39 23 2   98.79     LegendNANA
21:00 8.2 -5.6 37 16 4   98.83     LegendNANA
22:00 6.8 -5.5 41 12 6   98.88     LegendNANA
23:00 5.5 -3.9 51 14 1   98.90     LegendNANA

Notes on Data Quality.

Legend

  • E = Estimated
  • M = Missing
  • NA = Not Available
  • ‡ = Partner data that is not subject to review by the National Climate Archives
Date modified: